SSG01 LZIB-EBBR

Flight info

Callsign SSG01
Flight time N/A
Altitude 38000
Route TOVKA2G TOVKA DCT RENKA DCT EXITI DCT TEKTU DCT TESGA DCT UMUPU T880 BATTY BATTY7A
Aircraft A319/M-SDE3/2105

Departure

Time 2026-05-07 20:12
Airport M. R. Štefánik Airport (LZIB)

Arrival

Time N/A
Airport Brussels Airport (EBBR)
Time Latitude Longitude Altitude Speed Heading
2026-05-07 19:51 48.16742 17.19781 437 ft 0 kts 73°
2026-05-07 20:04 48.16743 17.19786 437 ft 2 kts 73°
2026-05-07 20:04 48.16752 17.19822 437 ft 5 kts 70°
2026-05-07 20:04 48.16758 17.19890 436 ft 8 kts 96°
2026-05-07 20:04 48.16749 17.19973 436 ft 4 kts 112°
2026-05-07 20:05 48.16718 17.19993 435 ft 6 kts 184°
2026-05-07 20:05 48.16674 17.20001 435 ft 7 kts 117°
2026-05-07 20:05 48.16673 17.20108 433 ft 13 kts 86°
2026-05-07 20:05 48.16675 17.20263 432 ft 15 kts 88°
2026-05-07 20:06 48.16718 17.20386 432 ft 14 kts 40°
2026-05-07 20:06 48.16794 17.20495 432 ft 15 kts 45°
2026-05-07 20:06 48.16873 17.20618 432 ft 16 kts 47°
2026-05-07 20:06 48.16959 17.20752 430 ft 19 kts 46°
2026-05-07 20:07 48.17033 17.20851 429 ft 11 kts 354°
2026-05-07 20:07 48.17092 17.20769 430 ft 12 kts 314°
2026-05-07 20:07 48.17153 17.20675 432 ft 13 kts 314°
2026-05-07 20:07 48.17222 17.20569 433 ft 15 kts 314°
2026-05-07 20:08 48.17299 17.20451 434 ft 16 kts 313°
2026-05-07 20:08 48.17369 17.20338 435 ft 11 kts 319°
2026-05-07 20:08 48.17445 17.20300 435 ft 8 kts
2026-05-07 20:08 48.17466 17.20308 435 ft 0 kts 13°
2026-05-07 20:09 48.17471 17.20309 435 ft 2 kts 13°
2026-05-07 20:09 48.17499 17.20330 435 ft 6 kts 32°
2026-05-07 20:10 48.17493 17.20516 432 ft 0 kts 133°
2026-05-07 20:11 48.17314 17.20793 432 ft 81 kts 133°
2026-05-07 20:12 48.16719 17.21698 444 ft 155 kts 139°
2026-05-07 20:12 48.15917 17.22921 976 ft 174 kts 137°
2026-05-07 20:12 48.15046 17.24267 1705 ft 189 kts 135°
2026-05-07 20:12 48.14131 17.25726 2351 ft 201 kts 135°
2026-05-07 20:13 48.13145 17.27266 3014 ft 213 kts 134°
2026-05-07 20:13 48.12102 17.28891 3672 ft 218 kts 134°
2026-05-07 20:13 48.11101 17.30566 4272 ft 224 kts 122°
2026-05-07 20:13 48.10717 17.32855 4896 ft 239 kts 81°
2026-05-07 20:14 48.11400 17.35104 5568 ft 251 kts 46°
2026-05-07 20:14 48.12711 17.36901 6232 ft 265 kts 36°
2026-05-07 20:14 48.14378 17.38034 6863 ft 268 kts 10°
2026-05-07 20:14 48.16235 17.37929 7493 ft 273 kts 343°
2026-05-07 20:15 48.17864 17.36495 8376 ft 283 kts 315°
2026-05-07 20:15 48.18892 17.33988 9439 ft 288 kts 290°
2026-05-07 20:15 48.19461 17.31138 10445 ft 292 kts 287°
2026-05-07 20:15 48.20025 17.28209 11249 ft 294 kts 287°
2026-05-07 20:16 48.20603 17.25232 11772 ft 313 kts 287°
2026-05-07 20:16 48.21239 17.21984 12024 ft 329 kts 287°
2026-05-07 20:16 48.21894 17.18657 12501 ft 342 kts 287°
2026-05-07 20:16 48.22563 17.15265 13673 ft 338 kts 287°
2026-05-07 20:17 48.23210 17.11984 14760 ft 335 kts 287°
2026-05-07 20:17 48.23882 17.08602 15700 ft 338 kts 286°
2026-05-07 20:17 48.24542 17.05250 16538 ft 342 kts 285°
2026-05-07 20:17 48.25208 17.01854 17371 ft 346 kts 285°
2026-05-07 20:18 48.25891 16.98363 18203 ft 350 kts 284°
2026-05-07 20:18 48.26565 16.94879 18964 ft 354 kts 283°
2026-05-07 20:18 48.27135 16.91258 19730 ft 356 kts 279°
2026-05-07 20:18 48.27559 16.87622 20467 ft 360 kts 277°
2026-05-07 20:19 48.27954 16.83935 21175 ft 364 kts 276°
2026-05-07 20:19 48.28351 16.80162 21876 ft 368 kts 276°
2026-05-07 20:19 48.28749 16.76387 22555 ft 372 kts 276°
2026-05-07 20:19 48.29154 16.72533 23219 ft 377 kts 276°
2026-05-07 20:20 48.29561 16.68658 23877 ft 380 kts 276°
2026-05-07 20:20 48.29979 16.64683 24536 ft 384 kts 275°
2026-05-07 20:20 48.30393 16.60722 25174 ft 388 kts 276°
2026-05-07 20:20 48.30805 16.56755 25813 ft 391 kts 276°
2026-05-07 20:21 48.31227 16.52682 26425 ft 395 kts 276°
2026-05-07 20:21 48.31648 16.48621 27016 ft 398 kts 275°
2026-05-07 20:21 48.32071 16.44504 27596 ft 402 kts 275°
2026-05-07 20:21 48.32497 16.40360 28166 ft 406 kts 275°
2026-05-07 20:22 48.32923 16.36207 28722 ft 409 kts 275°
2026-05-07 20:22 48.33353 16.31997 29317 ft 412 kts 274°
2026-05-07 20:22 48.33784 16.27753 29867 ft 415 kts 274°
2026-05-07 20:22 48.34217 16.23464 30410 ft 419 kts 274°
2026-05-07 20:23 48.34654 16.19135 30912 ft 422 kts 274°
2026-05-07 20:23 48.35092 16.14766 31382 ft 425 kts 274°
2026-05-07 20:23 48.35526 16.10422 31924 ft 422 kts 274°
2026-05-07 20:23 48.35977 16.06082 32538 ft 418 kts 277°
2026-05-07 20:24 48.36752 16.01888 33104 ft 419 kts 285°
2026-05-07 20:24 48.37901 15.97912 33637 ft 419 kts 291°
2026-05-07 20:24 48.39162 15.94025 34201 ft 416 kts 292°
2026-05-07 20:24 48.40433 15.90169 34785 ft 413 kts 292°
2026-05-07 20:25 48.41705 15.86294 35307 ft 412 kts 292°
2026-05-07 20:25 48.42953 15.82475 35793 ft 411 kts 292°
2026-05-07 20:25 48.44217 15.78583 36263 ft 410 kts 292°
2026-05-07 20:25 48.45457 15.74750 36648 ft 412 kts 292°
2026-05-07 20:26 48.46710 15.70866 36968 ft 414 kts 292°
2026-05-07 20:26 48.47952 15.67012 37283 ft 416 kts 292°
2026-05-07 20:26 48.49226 15.63042 37478 ft 422 kts 292°
2026-05-07 20:26 48.50500 15.59070 37606 ft 429 kts 292°
2026-05-07 20:27 48.51799 15.55008 37728 ft 435 kts 292°
2026-05-07 20:27 48.53120 15.50873 37847 ft 441 kts 292°
2026-05-07 20:27 48.54458 15.46678 37961 ft 446 kts 292°
2026-05-07 20:28 48.57146 15.38234 38013 ft 450 kts 292°
2026-05-07 20:28 48.59841 15.29745 38016 ft 450 kts 292°
2026-05-07 20:29 48.62534 15.21230 38020 ft 450 kts 292°
2026-05-07 20:29 48.65206 15.12750 38020 ft 450 kts 292°
2026-05-07 20:30 48.67879 15.04234 38021 ft 451 kts 292°
2026-05-07 20:30 48.70557 14.95677 38023 ft 450 kts 292°
2026-05-07 20:31 48.73220 14.87139 38021 ft 450 kts 292°
2026-05-07 20:31 48.75880 14.78575 38020 ft 450 kts 292°
2026-05-07 20:32 48.78538 14.69990 38021 ft 450 kts 292°
2026-05-07 20:32 48.81171 14.61458 38017 ft 450 kts 292°
2026-05-07 20:33 48.83814 14.52866 38025 ft 450 kts 292°
2026-05-07 20:33 48.86455 14.44267 38025 ft 451 kts 292°
2026-05-07 20:34 48.89084 14.35639 38017 ft 451 kts 292°
2026-05-07 20:34 48.91695 14.27047 38022 ft 451 kts 291°
2026-05-07 20:35 48.94300 14.18452 38018 ft 451 kts 291°
2026-05-07 20:35 48.96916 14.09797 38026 ft 451 kts 291°
2026-05-07 20:36 48.99517 14.01159 38014 ft 450 kts 291°
2026-05-07 20:36 49.01894 13.93236 38022 ft 451 kts 291°
2026-05-07 20:37 49.04499 13.84525 38026 ft 451 kts 292°
2026-05-07 20:37 49.07076 13.75878 38020 ft 452 kts 292°
2026-05-07 20:38 49.09663 13.67168 38018 ft 452 kts 292°
2026-05-07 20:38 49.12236 13.58473 38018 ft 452 kts 292°
2026-05-07 20:39 49.14820 13.49710 38020 ft 453 kts 292°
2026-05-07 20:39 49.17385 13.40984 38017 ft 453 kts 292°
2026-05-07 20:40 49.19955 13.32200 38018 ft 453 kts 291°
2026-05-07 20:40 49.22499 13.23483 38015 ft 453 kts 291°
2026-05-07 20:41 49.25058 13.14673 38014 ft 453 kts 291°
2026-05-07 20:41 49.27611 13.05873 38019 ft 454 kts 292°
2026-05-07 20:42 49.30157 12.97064 38018 ft 454 kts 292°
2026-05-07 20:42 49.32697 12.88238 38022 ft 454 kts 292°